Time,TemperatureF,DewpointF,PressureIn,WindDirection,WindDirectionDegrees,WindSpeedMPH,WindSpeedGustMPH,Humidity,HourlyPrecipIn,Conditions,Clouds,dailyrainin,SoftwareType,DateUTC
2013-10-15 00:04:00,49.8,36.9,29.85,NE,38,0.0,0.0,61,0.00,,---,0.00,VWS V13.01,2013-10-15 04:04:00,
2013-10-15 00:09:00,49.8,36.9,29.85,NE,38,0.0,0.0,61,0.00,,---,0.00,VWS V13.01,2013-10-15 04:09:00,
2013-10-15 00:14:00,49.8,36.5,29.85,NE,38,0.0,0.0,60,0.00,,---,0.00,VWS V13.01,2013-10-15 04:14:00,
2013-10-15 00:19:00,49.3,35.6,29.85,NE,38,0.0,0.0,59,0.00,,---,0.00,VWS V13.01,2013-10-15 04:19:00,
2013-10-15 00:24:00,49.1,35.8,29.85,NE,38,0.0,0.0,60,0.00,,---,0.00,VWS V13.01,2013-10-15 04:24:00,
2013-10-15 00:29:00,48.9,36.1,29.85,NE,38,0.0,0.0,61,0.00,,---,0.00,VWS V13.01,2013-10-15 04:29:00,
2013-10-15 00:34:00,49.1,36.2,29.85,NE,38,0.0,0.0,61,0.00,,---,0.00,VWS V13.01,2013-10-15 04:34:00,
2013-10-15 00:39:00,49.3,36.4,29.85,NE,38,0.0,0.0,61,0.00,,---,0.00,VWS V13.01,2013-10-15 04:39:00,
2013-10-15 00:44:00,49.1,36.2,29.85,NE,38,0.0,0.0,61,0.00,,---,0.00,VWS V13.01,2013-10-15 04:44:00,
2013-10-15 00:49:00,48.9,35.7,29.85,NE,38,0.0,0.0,60,0.00,,---,0.00,VWS V13.01,2013-10-15 04:49:00,
2013-10-15 00:54:00,48.7,35.9,29.85,NE,38,0.0,0.0,61,0.00,,---,0.00,VWS V13.01,2013-10-15 04:54:00,
2013-10-15 00:59:00,48.7,36.3,29.85,NE,38,0.0,0.0,62,0.00,,---,0.00,VWS V13.01,2013-10-15 04:59:00,
2013-10-15 01:04:00,48.7,37.1,29.85,NE,38,0.0,0.0,64,0.00,,---,0.00,VWS V13.01,2013-10-15 05:04:00,
2013-10-15 01:14:00,48.9,38.1,29.85,NE,38,0.0,0.0,66,0.00,,---,0.00,VWS V13.01,2013-10-15 05:14:00,
2013-10-15 01:19:00,48.7,37.5,29.85,NE,38,0.0,0.0,65,0.00,,---,0.00,VWS V13.01,2013-10-15 05:19:00,
2013-10-15 01:24:00,48.6,38.1,29.85,NE,38,0.0,0.0,67,0.00,,---,0.00,VWS V13.01,2013-10-15 05:24:00,
2013-10-15 01:29:00,48.9,38.8,29.85,NE,38,0.0,0.0,68,0.00,,---,0.00,VWS V13.01,2013-10-15 05:29:00,
2013-10-15 01:34:00,49.3,39.2,29.85,NE,38,0.0,0.0,68,0.00,,---,0.00,VWS V13.01,2013-10-15 05:34:00,
2013-10-15 01:39:00,48.9,37.3,29.85,NE,38,0.0,0.0,64,0.00,,---,0.00,VWS V13.01,2013-10-15 05:39:00,
2013-10-15 01:44:00,48.6,37.0,29.85,NE,38,0.0,0.0,64,0.00,,---,0.00,VWS V13.01,2013-10-15 05:44:00,
2013-10-15 01:49:00,48.4,37.9,29.85,NE,38,0.0,0.0,67,0.00,,---,0.00,VWS V13.01,2013-10-15 05:49:00,
2013-10-15 01:54:00,48.6,38.5,29.85,NE,38,0.0,0.0,68,0.00,,---,0.00,VWS V13.01,2013-10-15 05:54:00,
2013-10-15 02:04:00,48.6,38.5,29.85,NE,38,0.0,0.0,68,0.00,,---,0.00,VWS V13.01,2013-10-15 06:04:00,
2013-10-15 02:09:00,48.6,38.1,29.85,NE,38,0.0,0.0,67,0.00,,---,0.00,VWS V13.01,2013-10-15 06:09:00,
2013-10-15 02:14:00,48.2,37.0,29.85,NE,38,0.0,0.0,65,0.00,,---,0.00,VWS V13.01,2013-10-15 06:14:00,
2013-10-15 02:19:00,48.2,37.4,29.85,NE,38,0.0,0.0,66,0.00,,---,0.00,VWS V13.01,2013-10-15 06:19:00,
2013-10-15 02:29:00,48.2,37.4,29.83,NE,38,0.0,0.0,66,0.00,,---,0.00,VWS V13.01,2013-10-15 06:29:00,
2013-10-15 02:34:00,48.2,37.0,29.83,NE,38,0.0,0.0,65,0.00,,---,0.00,VWS V13.01,2013-10-15 06:34:00,
2013-10-15 02:39:00,47.8,36.7,29.83,NE,38,0.0,0.0,65,0.00,,---,0.00,VWS V13.01,2013-10-15 06:39:00,
2013-10-15 02:44:00,48.0,37.2,29.83,NE,38,0.0,0.0,66,0.00,,---,0.00,VWS V13.01,2013-10-15 06:44:00,
2013-10-15 02:49:00,48.0,37.6,29.83,NE,38,0.0,0.0,67,0.00,,---,0.00,VWS V13.01,2013-10-15 06:49:00,
2013-10-15 02:54:00,48.0,37.2,29.83,NE,38,0.0,0.0,66,0.00,,---,0.00,VWS V13.01,2013-10-15 06:54:00,
2013-10-15 03:04:00,47.5,35.9,29.83,NE,38,0.0,0.0,64,0.00,,---,0.00,VWS V13.01,2013-10-15 07:04:00,
2013-10-15 03:09:00,47.3,36.2,29.83,NE,38,0.0,0.0,65,0.00,,---,0.00,VWS V13.01,2013-10-15 07:09:00,
2013-10-15 03:14:00,47.5,36.7,29.83,NE,38,0.0,0.0,66,0.00,,---,0.00,VWS V13.01,2013-10-15 07:14:00,
2013-10-15 03:19:00,47.7,36.9,29.83,NE,38,0.0,0.0,66,0.00,,---,0.00,VWS V13.01,2013-10-15 07:19:00,
2013-10-15 03:29:00,47.3,36.5,29.83,NE,38,0.0,0.0,66,0.00,,---,0.00,VWS V13.01,2013-10-15 07:29:00,
2013-10-15 03:34:00,47.3,36.9,29.83,NE,38,0.0,0.0,67,0.00,,---,0.00,VWS V13.01,2013-10-15 07:34:00,
2013-10-15 03:39:00,47.3,37.3,29.83,NE,38,0.0,0.0,68,0.00,,---,0.00,VWS V13.01,2013-10-15 07:39:00,
2013-10-15 03:44:00,47.1,36.7,29.83,NE,38,0.0,0.0,67,0.00,,---,0.00,VWS V13.01,2013-10-15 07:44:00,
2013-10-15 03:49:00,46.9,36.2,29.83,NE,38,0.0,0.0,66,0.00,,---,0.00,VWS V13.01,2013-10-15 07:49:00,
2013-10-15 03:54:00,46.9,36.6,29.83,NE,38,0.0,0.0,67,0.00,,---,0.00,VWS V13.01,2013-10-15 07:54:00,
2013-10-15 03:59:00,46.9,36.9,29.83,NE,38,0.0,0.0,68,0.00,,---,0.00,VWS V13.01,2013-10-15 07:59:00,
2013-10-15 04:04:00,47.1,37.1,29.83,NE,38,0.0,0.0,68,0.00,,---,0.00,VWS V13.01,2013-10-15 08:04:00,
2013-10-15 04:09:00,47.1,37.1,29.83,NE,38,0.0,0.0,68,0.00,,---,0.00,VWS V13.01,2013-10-15 08:09:00,
2013-10-15 04:14:00,46.9,36.2,29.83,NE,38,0.0,0.0,66,0.00,,---,0.00,VWS V13.01,2013-10-15 08:14:00,
2013-10-15 04:19:00,46.9,35.8,29.83,NE,38,0.0,0.0,65,0.00,,---,0.00,VWS V13.01,2013-10-15 08:19:00,
2013-10-15 04:24:00,46.9,36.2,29.83,NE,38,0.0,0.0,66,0.00,,---,0.00,VWS V13.01,2013-10-15 08:24:00,
2013-10-15 04:29:00,47.1,37.5,29.83,NE,38,0.0,0.0,69,0.00,,---,0.00,VWS V13.01,2013-10-15 08:29:00,
2013-10-15 04:34:00,47.5,40.0,29.83,NE,38,2.7,2.7,75,0.00,,---,0.00,VWS V13.01,2013-10-15 08:34:00,
2013-10-15 04:39:00,48.0,41.8,29.83,NE,38,0.0,2.7,79,0.00,,---,0.00,VWS V13.01,2013-10-15 08:39:00,
2013-10-15 04:44:00,48.4,42.8,29.83,NE,38,3.1,3.1,81,0.00,,---,0.00,VWS V13.01,2013-10-15 08:44:00,
2013-10-15 04:49:00,48.6,43.3,29.83,NW,317,0.0,3.1,82,0.00,,---,0.00,VWS V13.01,2013-10-15 08:49:00,
2013-10-15 04:54:00,48.9,44.0,29.83,NW,317,0.0,3.1,83,0.00,,---,0.00,VWS V13.01,2013-10-15 08:54:00,
2013-10-15 05:04:00,49.6,44.7,29.83,NW,317,0.0,2.7,83,0.00,,---,0.00,VWS V13.01,2013-10-15 09:04:00,
2013-10-15 05:14:00,50.0,44.7,29.83,NW,317,0.0,0.0,82,0.00,,---,0.00,VWS V13.01,2013-10-15 09:14:00,
2013-10-15 05:19:00,50.0,44.4,29.83,NW,317,0.0,0.0,81,0.00,,---,0.00,VWS V13.01,2013-10-15 09:19:00,
2013-10-15 05:29:00,50.0,44.1,29.83,NW,317,0.0,0.0,80,0.00,,---,0.00,VWS V13.01,2013-10-15 09:29:00,
2013-10-15 05:34:00,50.0,43.8,29.83,NW,317,0.0,0.0,79,0.00,,---,0.00,VWS V13.01,2013-10-15 09:34:00,
2013-10-15 05:39:00,50.2,44.3,29.83,NW,317,0.0,0.0,80,0.00,,---,0.00,VWS V13.01,2013-10-15 09:39:00,
2013-10-15 05:44:00,50.2,43.9,29.83,NW,317,0.0,0.0,79,0.00,,---,0.00,VWS V13.01,2013-10-15 09:44:00,
2013-10-15 05:49:00,50.2,43.6,29.83,NW,317,0.0,0.0,78,0.00,,---,0.00,VWS V13.01,2013-10-15 09:49:00,
2013-10-15 05:54:00,50.2,43.6,29.83,NW,317,0.0,0.0,78,0.00,,---,0.00,VWS V13.01,2013-10-15 09:54:00,
2013-10-15 05:59:00,50.2,43.6,29.80,NW,317,0.0,0.0,78,0.00,,---,0.00,VWS V13.01,2013-10-15 09:59:00,
2013-10-15 06:04:00,50.2,43.6,29.80,NW,317,0.0,0.0,78,0.00,,---,0.00,VWS V13.01,2013-10-15 10:04:00,
2013-10-15 06:09:00,50.2,43.6,29.80,NW,317,0.0,0.0,78,0.00,,---,0.00,VWS V13.01,2013-10-15 10:09:00,
2013-10-15 06:14:00,50.2,43.6,29.80,NW,317,0.0,0.0,78,0.00,,---,0.00,VWS V13.01,2013-10-15 10:14:00,
2013-10-15 06:19:00,50.0,43.4,29.80,NW,317,0.0,0.0,78,0.00,,---,0.00,VWS V13.01,2013-10-15 10:19:00,
2013-10-15 06:24:00,49.6,42.7,29.80,NW,317,0.0,0.0,77,0.00,,---,0.00,VWS V13.01,2013-10-15 10:24:00,
2013-10-15 06:29:00,49.6,42.7,29.80,NW,317,0.0,0.0,77,0.00,,---,0.00,VWS V13.01,2013-10-15 10:29:00,
2013-10-15 06:34:00,49.6,42.7,29.80,NW,317,0.0,0.0,77,0.00,,---,0.00,VWS V13.01,2013-10-15 10:34:00,
2013-10-15 06:39:00,49.3,42.0,29.80,WNW,291,4.0,4.0,76,0.00,,---,0.00,VWS V13.01,2013-10-15 10:39:00,
2013-10-15 06:44:00,49.3,42.0,29.80,WNW,291,0.0,4.0,76,0.00,,---,0.00,VWS V13.01,2013-10-15 10:44:00,
2013-10-15 06:49:00,49.1,41.9,29.80,WNW,291,0.0,0.0,76,0.00,,---,0.00,VWS V13.01,2013-10-15 10:49:00,
2013-10-15 06:54:00,48.7,41.2,29.80,WNW,291,0.0,0.0,75,0.00,,---,0.00,VWS V13.01,2013-10-15 10:54:00,
2013-10-15 06:59:00,48.6,40.7,29.80,WNW,291,0.0,0.0,74,0.00,,---,0.00,VWS V13.01,2013-10-15 10:59:00,
2013-10-15 07:04:00,48.6,41.0,29.80,WNW,291,0.0,0.0,75,0.00,,---,0.00,VWS V13.01,2013-10-15 11:04:00,
2013-10-15 07:09:00,48.6,41.3,29.80,WNW,291,0.0,0.0,76,0.00,,---,0.00,VWS V13.01,2013-10-15 11:09:00,
2013-10-15 07:14:00,48.7,41.5,29.80,WNW,291,0.0,0.0,76,0.00,,---,0.00,VWS V13.01,2013-10-15 11:14:00,
2013-10-15 07:19:00,48.9,42.0,29.80,WNW,291,0.0,0.0,77,0.00,,---,0.00,VWS V13.01,2013-10-15 11:19:00,
2013-10-15 07:24:00,49.1,42.2,29.80,WNW,291,0.0,0.0,77,0.00,,---,0.00,VWS V13.01,2013-10-15 11:24:00,
2013-10-15 07:29:00,49.5,42.9,29.80,WNW,291,0.0,0.0,78,0.00,,---,0.00,VWS V13.01,2013-10-15 11:29:00,
2013-10-15 07:34:00,50.7,43.8,29.80,WNW,291,0.0,0.0,77,0.00,,---,0.00,VWS V13.01,2013-10-15 11:34:00,
2013-10-15 07:39:00,50.9,44.0,29.80,WNW,291,0.0,0.0,77,0.00,,---,0.00,VWS V13.01,2013-10-15 11:39:00,
2013-10-15 07:44:00,50.9,42.9,29.80,WNW,291,0.0,0.0,74,0.00,,---,0.00,VWS V13.01,2013-10-15 11:44:00,
2013-10-15 07:49:00,51.1,42.4,29.80,WNW,291,0.0,0.0,72,0.00,,---,0.00,VWS V13.01,2013-10-15 11:49:00,
2013-10-15 07:59:00,51.4,43.1,29.80,WNW,291,0.0,3.1,73,0.00,,---,0.00,VWS V13.01,2013-10-15 11:59:00,
2013-10-15 08:04:00,51.8,43.4,29.80,WNW,291,0.0,0.0,73,0.00,,---,0.00,VWS V13.01,2013-10-15 12:04:00,
2013-10-15 08:09:00,52.5,44.1,29.80,WNW,291,0.0,0.0,73,0.00,,---,0.00,VWS V13.01,2013-10-15 12:09:00,
2013-10-15 08:14:00,52.9,42.6,29.83,WNW,291,0.0,0.0,68,0.00,,---,0.00,VWS V13.01,2013-10-15 12:14:00,
2013-10-15 08:19:00,53.2,43.3,29.83,WNW,291,0.0,2.2,69,0.00,,---,0.00,VWS V13.01,2013-10-15 12:19:00,
2013-10-15 08:24:00,54.0,44.4,29.83,WNW,291,0.0,2.2,70,0.00,,---,0.00,VWS V13.01,2013-10-15 12:24:00,
2013-10-15 08:29:00,54.1,43.8,29.83,WNW,291,0.0,0.0,68,0.00,,---,0.00,VWS V13.01,2013-10-15 12:29:00,
2013-10-15 08:39:00,54.7,43.6,29.83,WNW,293,4.0,4.0,66,0.00,,---,0.00,VWS V13.01,2013-10-15 12:39:00,
2013-10-15 08:44:00,55.2,42.0,29.83,WNW,293,0.0,4.0,61,0.00,,---,0.00,VWS V13.01,2013-10-15 12:44:00,
2013-10-15 08:49:00,55.6,40.2,29.83,WNW,289,3.6,4.0,56,0.00,,---,0.00,VWS V13.01,2013-10-15 12:49:00,
2013-10-15 08:54:00,55.9,39.1,29.83,WNW,285,2.7,4.0,53,0.00,,---,0.00,VWS V13.01,2013-10-15 12:54:00,
2013-10-15 08:59:00,56.1,38.8,29.83,WNW,289,3.6,4.0,52,0.00,,---,0.00,VWS V13.01,2013-10-15 12:59:00,
2013-10-15 09:04:00,56.3,37.9,29.83,WNW,288,3.1,4.9,50,0.00,,---,0.00,VWS V13.01,2013-10-15 13:04:00,
2013-10-15 09:09:00,56.5,38.6,29.83,WNW,288,2.7,4.0,51,0.00,,---,0.00,VWS V13.01,2013-10-15 13:09:00,
2013-10-15 09:14:00,56.8,37.9,29.83,WNW,284,2.7,4.0,49,0.00,,---,0.00,VWS V13.01,2013-10-15 13:14:00,
2013-10-15 09:19:00,57.0,37.5,29.83,WNW,284,0.0,4.0,48,0.00,,---,0.00,VWS V13.01,2013-10-15 13:19:00,
2013-10-15 09:24:00,57.6,39.1,29.83,WNW,284,0.0,0.0,50,0.00,,---,0.00,VWS V13.01,2013-10-15 13:24:00,
2013-10-15 09:29:00,57.9,37.8,29.83,WNW,284,2.2,3.1,47,0.00,,---,0.00,VWS V13.01,2013-10-15 13:29:00,
2013-10-15 09:34:00,58.5,37.8,29.83,NNW,332,2.7,4.0,46,0.00,,---,0.00,VWS V13.01,2013-10-15 13:34:00,
2013-10-15 09:39:00,58.8,37.5,29.83,NNW,333,2.7,3.6,45,0.00,,---,0.00,VWS V13.01,2013-10-15 13:39:00,
2013-10-15 09:44:00,58.8,37.0,29.83,NNW,333,3.1,4.0,44,0.00,,---,0.00,VWS V13.01,2013-10-15 13:44:00,
2013-10-15 09:49:00,58.8,35.8,29.83,NNW,328,3.6,4.9,42,0.00,,---,0.00,VWS V13.01,2013-10-15 13:49:00,
2013-10-15 09:54:00,59.4,36.3,29.83,NW,314,0.0,3.6,42,0.00,,---,0.00,VWS V13.01,2013-10-15 13:54:00,
2013-10-15 09:59:00,59.5,37.0,29.83,NNW,338,0.0,4.9,43,0.00,,---,0.00,VWS V13.01,2013-10-15 13:59:00,
2013-10-15 10:04:00,60.3,38.3,29.83,North,0,3.1,3.1,44,0.00,,---,0.00,VWS V13.01,2013-10-15 14:04:00,
2013-10-15 10:09:00,60.6,36.2,29.83,NNW,345,0.0,3.6,40,0.00,,---,0.00,VWS V13.01,2013-10-15 14:09:00,
2013-10-15 10:14:00,60.8,35.1,29.83,West,278,3.1,4.0,38,0.00,,---,0.00,VWS V13.01,2013-10-15 14:14:00,
2013-10-15 10:19:00,61.2,36.0,29.83,NNW,341,2.7,5.8,39,0.00,,---,0.00,VWS V13.01,2013-10-15 14:19:00,
2013-10-15 10:24:00,61.3,35.5,29.83,NNW,340,0.0,4.0,38,0.00,,---,0.00,VWS V13.01,2013-10-15 14:24:00,
2013-10-15 10:29:00,61.5,34.3,29.83,NNW,338,0.0,3.1,36,0.00,,---,0.00,VWS V13.01,2013-10-15 14:29:00,
2013-10-15 10:34:00,62.1,34.8,29.83,NNW,345,3.6,5.4,36,0.00,,---,0.00,VWS V13.01,2013-10-15 14:34:00,
2013-10-15 10:39:00,62.6,34.6,29.83,WNW,284,0.0,4.0,35,0.00,,---,0.00,VWS V13.01,2013-10-15 14:39:00,
2013-10-15 10:49:00,63.1,32.8,29.83,NNW,338,2.7,3.6,32,0.00,,---,0.00,VWS V13.01,2013-10-15 14:49:00,
2013-10-15 10:54:00,63.3,33.8,29.83,WNW,292,0.0,4.9,33,0.00,,---,0.00,VWS V13.01,2013-10-15 14:54:00,
2013-10-15 10:59:00,63.5,32.3,29.83,NNW,333,2.2,2.2,31,0.00,,---,0.00,VWS V13.01,2013-10-15 14:59:00,
2013-10-15 11:04:00,64.0,31.2,29.83,WNW,289,4.0,5.4,29,0.00,,---,0.00,VWS V13.01,2013-10-15 15:04:00,
2013-10-15 11:09:00,64.2,31.3,29.83,NW,325,0.0,5.8,29,0.00,,---,0.00,VWS V13.01,2013-10-15 15:09:00,
2013-10-15 11:14:00,64.2,30.5,29.83,NNW,344,4.0,5.8,28,0.00,,---,0.00,VWS V13.01,2013-10-15 15:14:00,
2013-10-15 11:19:00,64.4,29.7,29.83,West,269,2.2,5.8,27,0.00,,---,0.00,VWS V13.01,2013-10-15 15:19:00,
2013-10-15 11:24:00,65.1,32.9,29.83,NNW,342,4.0,8.1,30,0.00,,---,0.00,VWS V13.01,2013-10-15 15:24:00,
2013-10-15 11:29:00,65.1,30.3,29.83,North,2,2.2,6.3,27,0.00,,---,0.00,VWS V13.01,2013-10-15 15:29:00,
2013-10-15 11:34:00,65.7,28.9,29.83,NE,53,2.7,6.3,25,0.00,,---,0.00,VWS V13.01,2013-10-15 15:34:00,
2013-10-15 11:39:00,66.0,29.2,29.83,NW,325,0.0,8.3,25,0.00,,---,0.00,VWS V13.01,2013-10-15 15:39:00,
2013-10-15 11:44:00,66.0,30.2,29.83,NNW,331,5.4,5.4,26,0.00,,---,0.00,VWS V13.01,2013-10-15 15:44:00,
2013-10-15 11:49:00,66.0,29.2,29.83,NNW,338,4.0,5.4,25,0.00,,---,0.00,VWS V13.01,2013-10-15 15:49:00,
2013-10-15 11:54:00,66.4,29.5,29.83,NNW,345,4.9,5.4,25,0.00,,---,0.00,VWS V13.01,2013-10-15 15:54:00,
2013-10-15 11:59:00,66.6,28.7,29.83,North,3,0.0,4.9,24,0.00,,---,0.00,VWS V13.01,2013-10-15 15:59:00,
2013-10-15 12:04:00,66.7,28.8,29.83,NE,43,2.2,4.9,24,0.00,,---,0.00,VWS V13.01,2013-10-15 16:04:00,
2013-10-15 12:09:00,67.3,29.3,29.83,North,6,0.0,4.0,24,0.00,,---,0.00,VWS V13.01,2013-10-15 16:09:00,
2013-10-15 12:19:00,66.7,28.8,29.83,NNW,335,2.2,8.3,24,0.00,,---,0.00,VWS V13.01,2013-10-15 16:19:00,
2013-10-15 12:24:00,67.6,29.6,29.83,NNE,28,5.4,5.8,24,0.00,,---,0.00,VWS V13.01,2013-10-15 16:24:00,
2013-10-15 12:29:00,68.0,28.9,29.83,NNE,31,3.6,5.8,23,0.00,,---,0.00,VWS V13.01,2013-10-15 16:29:00,
2013-10-15 12:34:00,68.2,29.0,29.83,NE,39,4.9,7.2,23,0.00,,---,0.00,VWS V13.01,2013-10-15 16:34:00,
2013-10-15 12:44:00,68.7,29.5,29.83,NE,43,0.0,4.5,23,0.00,,---,0.00,VWS V13.01,2013-10-15 16:44:00,
2013-10-15 12:49:00,68.5,29.3,29.83,West,278,0.0,5.4,23,0.00,,---,0.00,VWS V13.01,2013-10-15 16:49:00,
2013-10-15 12:54:00,68.0,28.9,29.83,NW,314,2.7,4.0,23,0.00,,---,0.00,VWS V13.01,2013-10-15 16:54:00,
2013-10-15 12:59:00,68.7,29.5,29.80,SE,135,4.9,5.4,23,0.00,,---,0.00,VWS V13.01,2013-10-15 16:59:00,
2013-10-15 13:04:00,69.3,29.9,29.80,East,94,2.7,6.3,23,0.00,,---,0.00,VWS V13.01,2013-10-15 17:04:00,
2013-10-15 13:09:00,69.8,29.3,29.80,NNE,16,6.3,6.3,22,0.00,,---,0.00,VWS V13.01,2013-10-15 17:09:00,
2013-10-15 13:14:00,69.8,29.3,29.80,North,10,3.1,6.3,22,0.00,,---,0.00,VWS V13.01,2013-10-15 17:14:00,
2013-10-15 13:19:00,68.9,28.5,29.80,North,357,3.1,5.8,22,0.00,,---,0.00,VWS V13.01,2013-10-15 17:19:00,
2013-10-15 13:24:00,68.7,29.5,29.80,NNW,340,3.6,5.8,23,0.00,,---,0.00,VWS V13.01,2013-10-15 17:24:00,
2013-10-15 13:29:00,68.7,29.5,29.80,NNE,19,4.9,6.3,23,0.00,,---,0.00,VWS V13.01,2013-10-15 17:29:00,
2013-10-15 13:34:00,68.9,28.5,29.80,NNE,15,3.1,4.9,22,0.00,,---,0.00,VWS V13.01,2013-10-15 17:34:00,
2013-10-15 13:44:00,69.1,28.7,29.80,NNE,24,3.6,6.3,22,0.00,,---,0.00,VWS V13.01,2013-10-15 17:44:00,
2013-10-15 13:49:00,69.4,29.0,29.80,NE,46,5.4,6.7,22,0.00,,---,0.00,VWS V13.01,2013-10-15 17:49:00,
2013-10-15 13:54:00,70.2,29.6,29.80,NNW,339,4.0,5.4,22,0.00,,---,0.00,VWS V13.01,2013-10-15 17:54:00,
2013-10-15 13:59:00,69.3,28.8,29.80,NW,321,0.0,4.9,22,0.00,,---,0.00,VWS V13.01,2013-10-15 17:59:00,
2013-10-15 14:04:00,69.8,29.3,29.80,NE,38,2.7,4.5,22,0.00,,---,0.00,VWS V13.01,2013-10-15 18:04:00,
2013-10-15 14:09:00,70.9,30.2,29.80,South,189,3.6,4.0,22,0.00,,---,0.00,VWS V13.01,2013-10-15 18:09:00,
2013-10-15 14:14:00,71.8,27.3,29.80,NE,35,2.2,5.8,19,0.00,,---,0.00,VWS V13.01,2013-10-15 18:14:00,
2013-10-15 14:19:00,70.7,26.5,29.80,NNE,14,2.7,7.2,19,0.00,,---,0.00,VWS V13.01,2013-10-15 18:19:00,
2013-10-15 14:24:00,71.1,26.8,29.80,ENE,63,3.1,7.6,19,0.00,,---,0.00,VWS V13.01,2013-10-15 18:24:00,
2013-10-15 14:29:00,70.3,26.2,29.80,NNE,33,0.0,5.4,19,0.00,,---,0.00,VWS V13.01,2013-10-15 18:29:00,
2013-10-15 14:34:00,69.8,25.7,29.80,NE,34,3.1,4.9,19,0.00,,---,0.00,VWS V13.01,2013-10-15 18:34:00,
2013-10-15 14:39:00,70.5,26.3,29.80,SE,135,5.4,7.6,19,0.00,,---,0.00,VWS V13.01,2013-10-15 18:39:00,
2013-10-15 14:44:00,70.3,26.2,29.80,North,357,0.0,6.3,19,0.00,,---,0.00,VWS V13.01,2013-10-15 18:44:00,
2013-10-15 14:49:00,70.0,25.9,29.80,NE,42,2.2,8.1,19,0.00,,---,0.00,VWS V13.01,2013-10-15 18:49:00,
2013-10-15 14:59:00,70.5,26.3,29.80,NE,48,0.0,8.7,19,0.00,,---,0.00,VWS V13.01,2013-10-15 18:59:00,
2013-10-15 15:04:00,71.2,26.9,29.80,NNE,31,5.8,8.1,19,0.00,,---,0.00,VWS V13.01,2013-10-15 19:04:00,
2013-10-15 15:09:00,70.0,25.9,29.80,NNE,33,3.6,5.8,19,0.00,,---,0.00,VWS V13.01,2013-10-15 19:09:00,
2013-10-15 15:19:00,69.6,26.8,29.80,NNE,30,4.9,7.6,20,0.00,,---,0.00,VWS V13.01,2013-10-15 19:19:00,
2013-10-15 15:29:00,70.7,26.5,29.80,NE,42,3.1,8.1,19,0.00,,---,0.00,VWS V13.01,2013-10-15 19:29:00,
2013-10-15 15:34:00,69.1,26.4,29.80,North,353,5.4,7.6,20,0.00,,---,0.00,VWS V13.01,2013-10-15 19:34:00,
2013-10-15 15:39:00,68.7,26.1,29.80,NNE,32,3.1,6.3,20,0.00,,---,0.00,VWS V13.01,2013-10-15 19:39:00,
2013-10-15 15:44:00,69.1,26.4,29.80,NNE,29,6.3,6.3,20,0.00,,---,0.00,VWS V13.01,2013-10-15 19:44:00,
2013-10-15 15:49:00,69.4,26.7,29.80,NNW,333,4.0,8.3,20,0.00,,---,0.00,VWS V13.01,2013-10-15 19:49:00,
2013-10-15 15:54:00,68.4,25.8,29.80,NE,52,6.3,9.2,20,0.00,,---,0.00,VWS V13.01,2013-10-15 19:54:00,
2013-10-15 15:59:00,68.2,21.7,29.77,North,5,5.8,10.1,17,0.00,,---,0.00,VWS V13.01,2013-10-15 19:59:00,
2013-10-15 16:04:00,68.0,21.6,29.77,North,0,4.9,8.7,17,0.00,,---,0.00,VWS V13.01,2013-10-15 20:04:00,
2013-10-15 16:09:00,67.8,21.5,29.77,NE,42,5.4,7.6,17,0.00,,---,0.00,VWS V13.01,2013-10-15 20:09:00,
2013-10-15 16:14:00,67.6,21.3,29.80,NNE,15,6.3,8.1,17,0.00,,---,0.00,VWS V13.01,2013-10-15 20:14:00,
2013-10-15 16:19:00,66.9,20.7,29.80,NE,36,3.6,7.2,17,0.00,,---,0.00,VWS V13.01,2013-10-15 20:19:00,
2013-10-15 16:29:00,66.9,20.7,29.80,NE,42,8.7,8.7,17,0.00,,---,0.00,VWS V13.01,2013-10-15 20:29:00,
2013-10-15 16:34:00,67.3,21.0,29.80,NE,45,7.6,11.0,17,0.00,,---,0.00,VWS V13.01,2013-10-15 20:34:00,
2013-10-15 16:39:00,66.7,20.6,29.80,North,357,4.9,8.7,17,0.00,,---,0.00,VWS V13.01,2013-10-15 20:39:00,
2013-10-15 16:44:00,66.6,20.4,29.80,NE,38,5.8,7.6,17,0.00,,---,0.00,VWS V13.01,2013-10-15 20:44:00,
2013-10-15 16:49:00,67.3,18.1,29.80,North,10,5.4,8.1,15,0.00,,---,0.00,VWS V13.01,2013-10-15 20:49:00,
2013-10-15 16:54:00,67.1,17.9,29.80,NNE,24,0.0,7.6,15,0.00,,---,0.00,VWS V13.01,2013-10-15 20:54:00,
2013-10-15 16:59:00,67.3,21.0,29.80,NNE,29,0.0,4.0,17,0.00,,---,0.00,VWS V13.01,2013-10-15 20:59:00,
2013-10-15 17:04:00,66.4,17.4,29.80,NNE,30,4.0,5.4,15,0.00,,---,0.00,VWS V13.01,2013-10-15 21:04:00,
2013-10-15 17:09:00,65.8,16.9,29.80,NNE,12,4.0,4.0,15,0.00,,---,0.00,VWS V13.01,2013-10-15 21:09:00,
2013-10-15 17:14:00,65.5,16.6,29.80,North,11,0.0,7.2,15,0.00,,---,0.00,VWS V13.01,2013-10-15 21:14:00,
2013-10-15 17:19:00,64.9,16.2,29.80,NE,36,4.0,5.8,15,0.00,,---,0.00,VWS V13.01,2013-10-15 21:19:00,
2013-10-15 17:24:00,64.9,16.2,29.80,NE,42,3.6,7.6,15,0.00,,---,0.00,VWS V13.01,2013-10-15 21:24:00,
2013-10-15 17:29:00,64.6,15.9,29.80,North,8,2.2,4.0,15,0.00,,---,0.00,VWS V13.01,2013-10-15 21:29:00,
2013-10-15 17:39:00,64.4,15.8,29.80,NNE,23,3.1,4.0,15,0.00,,---,0.00,VWS V13.01,2013-10-15 21:39:00,
2013-10-15 17:44:00,64.4,20.0,29.80,NNE,21,0.0,3.1,18,0.00,,---,0.00,VWS V13.01,2013-10-15 21:44:00,
2013-10-15 17:49:00,64.0,17.0,29.80,NNE,28,0.0,6.3,16,0.00,,---,0.00,VWS V13.01,2013-10-15 21:49:00,
2013-10-15 17:54:00,63.7,19.4,29.80,NNE,28,0.0,2.7,18,0.00,,---,0.00,VWS V13.01,2013-10-15 21:54:00,
2013-10-15 17:59:00,63.3,19.1,29.80,North,5,3.1,4.9,18,0.00,,---,0.00,VWS V13.01,2013-10-15 21:59:00,
2013-10-15 18:04:00,62.8,18.7,29.80,NE,45,3.1,4.0,18,0.00,,---,0.00,VWS V13.01,2013-10-15 22:04:00,
2013-10-15 18:09:00,62.6,18.5,29.80,NE,45,0.0,4.0,18,0.00,,---,0.00,VWS V13.01,2013-10-15 22:09:00,
2013-10-15 18:14:00,62.4,19.6,29.80,NE,45,0.0,0.0,19,0.00,,---,0.00,VWS V13.01,2013-10-15 22:14:00,
2013-10-15 18:19:00,61.9,19.2,29.80,NE,45,0.0,0.0,19,0.00,,---,0.00,VWS V13.01,2013-10-15 22:19:00,
2013-10-15 18:24:00,61.3,18.8,29.80,NE,45,0.0,0.0,19,0.00,,---,0.00,VWS V13.01,2013-10-15 22:24:00,
2013-10-15 18:29:00,61.0,18.5,29.80,NE,45,0.0,0.0,19,0.00,,---,0.00,VWS V13.01,2013-10-15 22:29:00,
2013-10-15 18:39:00,60.1,17.7,29.80,NE,45,0.0,0.0,19,0.00,,---,0.00,VWS V13.01,2013-10-15 22:39:00,
2013-10-15 18:49:00,59.4,20.5,29.80,NE,45,0.0,0.0,22,0.00,,---,0.00,VWS V13.01,2013-10-15 22:49:00,
2013-10-15 18:54:00,59.0,20.2,29.80,NE,45,0.0,2.7,22,0.00,,---,0.00,VWS V13.01,2013-10-15 22:54:00,
2013-10-15 18:59:00,58.6,19.9,29.80,NE,45,0.0,2.2,22,0.00,,---,0.00,VWS V13.01,2013-10-15 22:59:00,
2013-10-15 19:04:00,58.3,21.7,29.80,NE,45,0.0,0.0,24,0.00,,---,0.00,VWS V13.01,2013-10-15 23:04:00,
2013-10-15 19:09:00,57.9,21.4,29.80,NE,45,0.0,0.0,24,0.00,,---,0.00,VWS V13.01,2013-10-15 23:09:00,
2013-10-15 19:14:00,57.7,21.2,29.80,NE,45,0.0,0.0,24,0.00,,---,0.00,VWS V13.01,2013-10-15 23:14:00,
2013-10-15 19:19:00,57.6,22.0,29.80,NE,45,0.0,0.0,25,0.00,,---,0.00,VWS V13.01,2013-10-15 23:19:00,
2013-10-15 19:24:00,57.2,21.7,29.80,NE,45,0.0,2.2,25,0.00,,---,0.00,VWS V13.01,2013-10-15 23:24:00,
2013-10-15 19:29:00,56.8,22.3,29.80,NE,45,0.0,0.0,26,0.00,,---,0.00,VWS V13.01,2013-10-15 23:29:00,
2013-10-15 19:34:00,56.7,22.2,29.80,NE,45,0.0,0.0,26,0.00,,---,0.00,VWS V13.01,2013-10-15 23:34:00,
2013-10-15 19:39:00,56.5,22.0,29.80,NE,45,0.0,0.0,26,0.00,,---,0.00,VWS V13.01,2013-10-15 23:39:00,
2013-10-15 19:44:00,56.5,22.0,29.80,NE,45,0.0,0.0,26,0.00,,---,0.00,VWS V13.01,2013-10-15 23:44:00,
2013-10-15 19:49:00,56.3,22.8,29.80,NE,45,0.0,0.0,27,0.00,,---,0.00,VWS V13.01,2013-10-15 23:49:00,
2013-10-15 19:54:00,56.1,22.6,29.80,NE,45,0.0,0.0,27,0.00,,---,0.00,VWS V13.01,2013-10-15 23:54:00,
2013-10-15 19:59:00,55.9,23.3,29.80,NE,45,0.0,0.0,28,0.00,,---,0.00,VWS V13.01,2013-10-15 23:59:00,
2013-10-15 20:04:00,55.6,23.0,29.80,NE,45,0.0,0.0,28,0.00,,---,0.00,VWS V13.01,2013-10-16 00:04:00,
2013-10-15 20:09:00,55.2,23.5,29.80,NE,45,0.0,0.0,29,0.00,,---,0.00,VWS V13.01,2013-10-16 00:09:00,
2013-10-15 20:14:00,55.2,24.4,29.80,NE,45,0.0,0.0,30,0.00,,---,0.00,VWS V13.01,2013-10-16 00:14:00,
2013-10-15 20:19:00,54.9,27.8,29.80,NE,45,0.0,0.0,35,0.00,,---,0.00,VWS V13.01,2013-10-16 00:19:00,
2013-10-15 20:24:00,54.1,27.8,29.80,NE,45,0.0,0.0,36,0.00,,---,0.00,VWS V13.01,2013-10-16 00:24:00,
2013-10-15 20:29:00,54.0,27.6,29.80,NE,45,0.0,0.0,36,0.00,,---,0.00,VWS V13.01,2013-10-16 00:29:00,
2013-10-15 20:34:00,54.0,27.6,29.80,NE,45,0.0,0.0,36,0.00,,---,0.00,VWS V13.01,2013-10-16 00:34:00,
2013-10-15 20:39:00,53.8,27.5,29.80,NE,45,0.0,0.0,36,0.00,,---,0.00,VWS V13.01,2013-10-16 00:39:00,
2013-10-15 20:44:00,53.8,27.5,29.80,NE,45,0.0,0.0,36,0.00,,---,0.00,VWS V13.01,2013-10-16 00:44:00,
2013-10-15 20:49:00,53.6,28.0,29.80,NE,45,0.0,0.0,37,0.00,,---,0.00,VWS V13.01,2013-10-16 00:49:00,
2013-10-15 20:54:00,53.4,27.8,29.80,NE,45,0.0,0.0,37,0.00,,---,0.00,VWS V13.01,2013-10-16 00:54:00,
2013-10-15 20:59:00,53.4,27.8,29.80,NE,45,0.0,0.0,37,0.00,,---,0.00,VWS V13.01,2013-10-16 00:59:00,
2013-10-15 21:04:00,53.1,29.4,29.80,NE,45,0.0,0.0,40,0.00,,---,0.00,VWS V13.01,2013-10-16 01:04:00,
2013-10-15 21:09:00,52.5,29.5,29.80,NE,45,0.0,0.0,41,0.00,,---,0.00,VWS V13.01,2013-10-16 01:09:00,
2013-10-15 21:14:00,52.7,29.7,29.80,NE,45,0.0,0.0,41,0.00,,---,0.00,VWS V13.01,2013-10-16 01:14:00,
2013-10-15 21:19:00,52.5,30.1,29.80,NE,45,0.0,0.0,42,0.00,,---,0.00,VWS V13.01,2013-10-16 01:19:00,
2013-10-15 21:24:00,52.0,29.6,29.80,NE,45,0.0,0.0,42,0.00,,---,0.00,VWS V13.01,2013-10-16 01:24:00,
2013-10-15 21:29:00,51.8,29.5,29.80,NE,45,0.0,0.0,42,0.00,,---,0.00,VWS V13.01,2013-10-16 01:29:00,
2013-10-15 21:34:00,52.0,30.2,29.80,NE,45,0.0,0.0,43,0.00,,---,0.00,VWS V13.01,2013-10-16 01:34:00,
2013-10-15 21:39:00,51.6,31.0,29.80,NE,45,0.0,0.0,45,0.00,,---,0.00,VWS V13.01,2013-10-16 01:39:00,
2013-10-15 21:44:00,51.3,30.7,29.80,NE,45,0.0,0.0,45,0.00,,---,0.00,VWS V13.01,2013-10-16 01:44:00,
2013-10-15 21:49:00,51.3,30.7,29.80,NE,45,0.0,0.0,45,0.00,,---,0.00,VWS V13.01,2013-10-16 01:49:00,
2013-10-15 21:54:00,51.4,31.4,29.80,NE,45,0.0,0.0,46,0.00,,---,0.00,VWS V13.01,2013-10-16 01:54:00,
2013-10-15 22:04:00,51.4,30.8,29.80,NE,45,0.0,0.0,45,0.00,,---,0.00,VWS V13.01,2013-10-16 02:04:00,
2013-10-15 22:09:00,51.4,31.4,29.80,NE,45,0.0,0.0,46,0.00,,---,0.00,VWS V13.01,2013-10-16 02:09:00,
2013-10-15 22:14:00,50.9,30.9,29.80,NE,45,0.0,0.0,46,0.00,,---,0.00,VWS V13.01,2013-10-16 02:14:00,
2013-10-15 22:19:00,50.9,31.4,29.80,NE,45,0.0,0.0,47,0.00,,---,0.00,VWS V13.01,2013-10-16 02:19:00,
2013-10-15 22:24:00,50.4,31.4,29.80,NE,45,0.0,0.0,48,0.00,,---,0.00,VWS V13.01,2013-10-16 02:24:00,
2013-10-15 22:29:00,50.2,31.8,29.80,NE,45,0.0,0.0,49,0.00,,---,0.00,VWS V13.01,2013-10-16 02:29:00,
2013-10-15 22:34:00,50.4,31.9,29.80,NE,45,0.0,0.0,49,0.00,,---,0.00,VWS V13.01,2013-10-16 02:34:00,
2013-10-15 22:39:00,50.0,31.6,29.80,NE,45,0.0,0.0,49,0.00,,---,0.00,VWS V13.01,2013-10-16 02:39:00,
2013-10-15 22:44:00,49.8,31.9,29.77,NE,45,0.0,0.0,50,0.00,,---,0.00,VWS V13.01,2013-10-16 02:44:00,
2013-10-15 22:49:00,50.0,32.1,29.77,NE,45,0.0,0.0,50,0.00,,---,0.00,VWS V13.01,2013-10-16 02:49:00,
2013-10-15 22:54:00,49.5,32.1,29.77,NE,45,0.0,0.0,51,0.00,,---,0.00,VWS V13.01,2013-10-16 02:54:00,
2013-10-15 22:59:00,49.1,31.8,29.77,NE,45,0.0,0.0,51,0.00,,---,0.00,VWS V13.01,2013-10-16 02:59:00,
2013-10-15 23:04:00,49.3,32.4,29.77,NE,45,0.0,0.0,52,0.00,,---,0.00,VWS V13.01,2013-10-16 03:04:00,
2013-10-15 23:09:00,49.1,31.8,29.77,NE,45,0.0,0.0,51,0.00,,---,0.00,VWS V13.01,2013-10-16 03:09:00,
2013-10-15 23:14:00,49.1,32.7,29.77,NE,45,0.0,0.0,53,0.00,,---,0.00,VWS V13.01,2013-10-16 03:14:00,
2013-10-15 23:24:00,48.7,32.8,29.77,NE,45,0.0,0.0,54,0.00,,---,0.00,VWS V13.01,2013-10-16 03:24:00,
2013-10-15 23:34:00,48.7,34.2,29.77,NE,45,0.0,0.0,57,0.00,,---,0.00,VWS V13.01,2013-10-16 03:34:00,
2013-10-15 23:39:00,48.6,33.6,29.77,NE,45,0.0,0.0,56,0.00,,---,0.00,VWS V13.01,2013-10-16 03:39:00,
2013-10-15 23:49:00,48.2,32.3,29.77,NE,45,0.0,0.0,54,0.00,,---,0.00,VWS V13.01,2013-10-16 03:49:00,
2013-10-15 23:59:00,48.2,32.3,29.74,NE,45,0.0,0.0,54,0.00,,---,0.00,VWS V13.01,2013-10-16 03:59:00,